Theta_e
317 317 317 317 317 317 317 317 317 318 318 318 318 318 319 319 319 320 320 319 319 319 319 319 319 320 319 319 319 320 318 319 319 317 321 324 331 341 348 346 347 352 355 345 334 336 333 337 338 345 341 343 339 338 343 340 340 339 330 328 322 326 322 320 326 325 324 325 327 328 330 330 327 332 334 340 338 338 338 339 341 342 346 346 346 348 348 348
317 317 317 316 316 316 316 317 317 317 318 318 318 318 318 318 319 319 319 319 319 318 319 319 319 319 319 319 319 319 319 318 318 319 318 328 340 349 348 347 349 358 355 332 329 333 331 333 337 343 339 336 341 334 340 335 341 333 329 327 321 322 327 334 330 330 329 326 329 330 331 331 330 332 334 333 333 334 336 337 340 341 343 344 346 346 346 346
316 316 316 316 316 316 316 316 317 317 317 318 318 318 318 319 318 319 319 319 318 318 318 319 319 319 319 319 319 319 319 318 319 319 323 340 341 346 347 347 346 356 348 329 328 333 331 334 337 341 337 333 337 331 335 335 336 333 329 325 325 331 332 333 331 331 333 332 329 330 331 331 333 333 333 332 331 334 334 334 338 337 337 341 343 345 345 345
316 316 316 315 316 316 316 317 317 317 317 317 317 318 318 318 318 318 318 318 318 318 319 318 318 318 319 318 319 320 318 319 314 318 324 354 345 345 347 352 349 350 342 331 329 332 334 336 337 340 334 331 334 333 331 334 331 332 328 324 328 337 329 331 332 334 334 333 332 331 330 330 332 336 332 332 331 330 335 338 338 335 339 341 343 344 344 344
315 315 315 316 315 316 316 316 317 316 317 317 317 317 317 317 317 317 318 318 318 318 318 317 318 318 318 319 318 321 319 308 312 326 333 353 349 345 346 351 350 338 333 331 334 334 333 333 335 337 332 326 331 330 331 334 335 332 329 330 329 332 329 334 334 334 334 333 332 330 330 331 336 335 332 332 326 326 334 339 341 341 339 341 342 343 344 343
315 315 315 315 315 315 316 316 316 316 316 317 317 317 318 317 316 317 317 317 317 317 317 317 317 318 319 319 320 321 316 302 322 327 345 349 346 345 345 345 351 335 330 334 335 333 332 332 334 331 327 327 324 326 329 332 335 323 329 332 330 332 333 338 336 335 334 334 331 329 333 333 330 332 332 334 330 329 338 342 341 341 342 345 345 344 343 343
315 315 315 315 315 315 315 315 315 315 316 316 317 316 316 316 316 316 316 317 317 317 317 318 318 318 318 319 319 317 313 312 319 329 357 351 346 345 346 347 356 338 331 333 331 329 330 331 332 329 326 325 325 326 329 329 333 329 325 332 330 333 333 337 337 337 335 333 333 334 334 330 330 325 333 332 335 335 338 341 342 341 345 345 342 344 343 343
315 314 314 314 315 315 315 315 315 315 315 316 317 317 316 316 316 316 316 316 317 317 318 318 319 319 318 318 318 314 310 310 318 334 347 359 343 342 346 334 337 334 331 329 328 327 330 328 329 330 324 322 323 324 328 327 330 327 324 329 333 335 334 335 335 336 335 334 335 334 330 330 331 330 332 330 334 337 337 341 342 344 343 343 344 344 344 344
314 314 314 314 314 315 315 315 315 316 316 316 315 315 315 315 315 316 317 317 317 318 319 320 319 319 319 319 318 311 310 319 321 333 342 334 331 332 334 333 332 333 332 329 328 327 328 328 332 330 321 322 325 322 327 325 322 328 327 328 328 331 334 335 334 335 335 335 335 331 329 330 331 334 328 333 333 338 338 340 343 342 342 342 342 343 344 344
314 314 314 314 314 314 314 315 315 316 316 316 316 315 315 315 316 316 316 317 318 319 320 320 319 319 318 317 313 306 315 321 320 321 327 329 334 330 332 334 332 333 332 328 326 325 325 328 330 332 328 325 326 322 327 325 323 330 329 328 328 329 330 333 332 334 335 334 335 330 328 328 330 328 324 333 335 338 337 339 343 342 340 343 344 344 345 343
313 313 314 314 314 314 315 315 315 316 316 315 315 315 315 315 315 315 316 317 319 321 322 322 320 319 317 316 310 308 319 318 327 328 324 321 328 331 328 331 332 332 333 328 325 325 326 329 331 331 326 323 325 322 325 326 330 332 331 332 329 328 329 332 333 333 334 331 333 332 328 328 328 326 326 329 335 337 335 339 341 342 342 342 344 344 347 345
313 314 314 314 314 315 315 315 315 315 315 314 314 314 315 315 315 315 316 318 320 322 323 322 321 320 320 315 310 312 325 320 328 332 327 329 334 333 328 330 332 331 331 327 325 325 326 328 330 327 319 326 320 325 324 330 330 329 329 324 327 328 325 328 328 332 333 330 333 332 326 323 324 322 328 332 333 335 336 339 340 341 341 343 344 344 346 345
314 314 314 314 314 314 315 315 315 315 314 314 314 314 314 314 314 315 317 319 321 320 322 322 321 322 319 310 314 321 323 326 325 328 330 332 335 334 329 329 332 332 332 328 326 327 327 328 328 324 327 325 322 320 327 331 328 329 327 324 323 322 321 326 330 330 330 329 331 328 314 318 321 326 329 334 333 334 337 339 339 341 340 341 343 342 346 346
313 313 314 314 314 315 315 315 315 314 313 313 314 313 313 313 314 316 319 321 321 319 322 322 322 321 318 313 318 320 323 323 322 322 327 333 330 329 328 329 331 332 333 329 329 329 328 328 327 326 329 325 321 330 324 324 327 321 325 325 317 315 315 323 326 329 326 330 329 328 314 317 321 326 331 333 337 333 335 337 338 340 340 342 341 342 345 346
313 313 314 314 314 315 315 314 313 313 313 313 312 312 312 312 315 318 321 323 320 321 321 322 323 320 314 316 324 326 342 320 317 319 322 330 330 327 326 332 332 332 333 331 330 330 330 328 326 323 321 328 328 322 319 319 321 323 318 314 317 314 316 321 325 325 322 326 329 325 316 316 320 326 330 333 335 335 334 337 338 339 340 340 340 342 343 345
313 313 314 314 314 314 314 313 313 313 313 312 311 311 313 314 318 321 321 324 321 322 324 321 322 321 317 313 320 332 320 315 314 319 322 334 332 329 332 332 332 331 331 329 332 332 330 328 322 323 323 327 322 317 316 316 315 318 315 314 313 315 315 318 322 325 325 325 326 323 317 318 320 326 329 332 333 333 333 336 338 339 341 340 341 343 344 345
313 313 313 313 314 314 313 312 313 313 311 311 311 311 314 316 319 321 322 323 323 325 325 322 322 321 310 319 325 316 314 316 319 317 319 329 333 330 329 327 326 327 330 331 332 331 328 324 324 323 324 320 319 316 312 311 310 312 316 312 315 314 315 313 321 323 325 324 320 323 320 320 321 328 329 330 332 331 330 332 337 338 340 342 341 342 344 345
313 313 313 313 313 313 313 312 312 312 310 310 310 311 314 316 317 322 324 323 328 326 326 327 326 316 312 319 312 314 321 319 317 316 318 327 331 329 328 325 327 328 328 326 329 325 326 320 322 315 317 317 317 313 308 305 309 309 311 311 312 315 317 315 314 320 323 323 320 321 320 321 322 325 328 330 330 330 330 330 333 336 338 337 338 340 342 342
313 313 313 313 313 313 312 312 311 310 309 310 314 318 317 316 321 326 324 325 321 319 312 316 312 305 307 314 319 318 318 322 319 316 317 322 327 328 329 329 327 324 318 317 318 322 324 320 321 315 311 312 313 314 310 312 313 312 313 313 313 312 314 315 319 322 322 320 319 319 317 320 322 324 326 329 330 329 329 330 333 335 337 341 341 340 339 343
313 313 313 313 312 313 312 311 311 309 308 311 315 318 320 310 309 320 318 317 316 317 319 316 316 315 317 319 317 321 323 322 315 315 318 323 323 322 325 325 321 319 314 309 312 316 322 311 310 310 312 314 316 318 316 314 314 315 315 315 314 313 315 318 319 323 324 320 318 319 319 320 322 323 325 327 330 329 329 329 330 334 336 336 338 339 339 342
313 313 313 313 312 312 312 311 310 309 308 312 315 311 303 303 299 299 304 306 309 309 308 309 310 313 315 319 321 317 314 316 319 315 317 325 321 320 319 320 316 311 311 312 311 315 317 308 309 314 315 317 317 319 318 315 313 312 313 313 312 314 312 318 318 322 323 318 317 320 319 320 321 323 325 326 326 326 327 328 328 331 334 337 338 338 340 343
312 313 312 312 312 311 311 310 310 309 307 315 313 306 308 307 309 311 308 300 307 310 311 311 312 310 313 315 320 321 318 314 314 317 318 321 317 313 317 316 313 309 312 312 313 310 308 307 310 314 317 318 320 319 318 315 312 312 311 311 310 312 315 318 320 322 323 319 316 319 317 319 321 323 324 324 324 326 329 330 329 331 333 338 341 340 341 341
312 312 312 312 311 311 310 309 309 306 314 312 309 307 305 310 314 316 312 305 303 311 310 309 307 308 309 314 316 320 314 311 311 316 316 316 314 312 315 312 311 312 312 311 308 307 305 309 314 316 317 316 316 316 314 313 313 311 310 309 308 312 311 310 317 321 322 319 316 319 316 318 322 324 324 325 325 326 328 331 330 330 332 336 336 339 341 340
312 313 312 312 311 310 310 308 307 312 312 312 312 306 310 313 314 314 308 301 300 306 309 311 312 310 309 308 315 316 313 314 315 313 320 314 310 313 313 312 311 311 309 310 310 309 308 313 318 315 315 315 312 312 311 310 308 311 311 310 309 311 312 313 314 318 321 320 320 318 316 317 318 318 319 324 325 325 326 329 330 330 331 337 340 340 342 339
312 313 313 311 310 309 308 306 309 309 312 313 310 310 311 313 315 316 306 304 306 305 315 312 313 313 313 318 317 311 314 316 316 319 320 316 312 310 309 315 312 309 311 312 310 309 310 315 316 313 313 314 312 309 310 310 307 308 311 311 311 312 313 314 315 315 313 313 318 316 308 309 316 318 318 321 322 322 325 328 328 329 330 335 339 341 342 340
312 312 312 311 311 309 307 309 307 310 311 307 307 310 312 313 315 316 308 299 295 303 313 305 315 309 319 311 313 312 315 309 318 319 321 319 319 312 311 311 313 308 311 311 310 310 311 315 315 312 311 311 311 309 311 311 307 306 307 312 312 312 312 312 312 313 308 307 314 318 308 305 316 315 318 320 321 321 324 326 327 329 331 333 335 335 337 340
312 312 312 311 311 308 306 302 310 312 306 305 310 311 312 312 319 314 304 299 297 308 305 310 309 310 315 313 313 314 300 305 318 319 319 321 314 317 309 309 313 314 315 314 310 306 312 313 313 313 311 309 308 307 310 311 307 305 312 312 311 310 309 310 311 311 310 315 315 316 314 307 308 314 319 321 319 320 322 324 326 326 331 330 335 337 339 337
312 312 311 310 309 308 307 309 311 308 308 309 310 311 312 315 316 314 303 290 291 311 305 306 310 316 314 314 314 308 310 316 309 314 320 321 318 314 311 310 310 310 313 312 302 311 312 310 312 311 310 308 307 310 312 313 309 308 311 311 310 310 309 310 309 309 309 309 306 311 315 309 308 315 320 320 317 318 321 324 327 328 330 332 334 337 340 341
312 311 311 310 308 306 312 311 311 309 311 311 310 311 312 314 311 304 297 291 307 307 316 306 314 313 311 313 310 310 311 315 309 314 319 320 319 315 308 311 313 312 313 313 307 311 314 314 313 314 311 308 311 312 313 313 308 311 312 312 311 311 310 309 308 307 308 306 302 308 312 306 307 313 315 319 318 317 320 324 327 329 331 333 331 336 339 342
312 311 310 309 308 312 312 313 310 312 311 311 312 312 312 310 307 298 291 286 306 299 307 307 307 305 310 306 307 309 308 311 314 316 316 314 315 317 315 317 312 311 310 313 312 313 315 319 318 314 312 313 313 314 314 313 313 314 312 310 309 309 310 311 309 308 306 300 303 308 311 309 303 311 313 314 315 319 322 324 327 330 331 332 334 333 337 341
311 309 309 308 309 310 309 307 309 310 312 313 312 311 308 305 297 293 287 296 305 305 308 306 304 308 306 304 303 309 308 311 310 314 310 314 312 313 313 310 313 309 309 309 308 311 314 315 313 315 317 317 316 313 315 315 314 312 309 307 307 307 309 308 307 308 300 298 305 309 309 310 301 307 314 320 322 322 322 322 326 328 330 331 333 332 336 340
308 307 308 310 312 313 306 305 310 311 313 312 310 306 302 291 298 287 290 305 294 304 304 303 307 307 306 308 306 307 305 309 310 310 309 308 308 307 307 305 307 301 302 304 303 310 308 311 315 315 319 316 313 311 311 312 312 310 308 307 302 300 302 297 301 297 297 297 305 309 309 305 305 311 316 318 319 322 324 323 324 325 327 331 334 335 335 336
307 306 305 311 315 314 312 312 313 313 312 311 307 303 295 289 284 294 293 297 294 303 302 307 304 304 305 305 304 307 310 304 310 308 311 310 308 308 310 309 310 307 300 306 305 304 306 312 313 313 315 317 315 306 307 306 309 308 306 304 300 298 297 293 297 300 300 303 307 307 310 304 309 312 317 316 320 322 323 325 326 326 326 327 334 336 333 335
306 307 312 316 312 311 313 315 312 311 309 309 304 298 294 286 287 300 296 299 299 305 305 303 302 304 304 301 304 307 304 308 308 307 309 308 307 305 307 309 311 308 308 308 303 304 300 300 307 310 307 316 314 311 310 309 308 308 310 307 304 303 299 295 297 295 297 301 304 308 304 302 303 307 317 318 320 321 323 323 326 327 327 328 332 336 334 336
305 309 316 315 313 312 311 311 312 311 309 305 299 294 286 286 292 291 294 296 300 302 300 303 300 301 301 304 306 308 308 304 309 308 306 306 304 306 306 306 310 311 309 304 307 306 304 304 310 314 313 315 312 314 314 312 309 310 311 311 306 303 308 301 303 302 302 301 302 304 302 308 308 317 319 321 319 320 320 322 324 326 326 327 328 332 330 329
308 315 315 311 308 309 309 311 311 311 307 302 295 289 287 291 289 296 294 299 299 296 297 300 301 299 299 301 306 305 310 305 307 307 305 306 308 306 310 310 308 310 308 303 308 303 306 303 312 312 314 313 313 314 313 314 302 308 308 303 306 313 309 306 308 308 307 304 301 309 307 308 314 314 316 317 318 319 319 320 321 323 325 328 327 333 331 330
311 313 309 309 308 309 310 311 311 309 306 299 292 288 293 294 297 296 298 296 296 298 297 292 297 298 297 298 302 304 306 307 306 305 302 307 305 309 309 311 313 311 312 309 307 312 304 304 311 310 308 313 316 315 314 314 315 311 303 307 312 314 312 307 301 305 302 299 302 306 304 306 305 303 315 315 314 315 317 318 319 322 324 324 325 328 332 330
309 311 309 308 308 310 310 312 310 308 303 298 290 292 297 292 298 298 300 299 298 297 294 293 295 299 297 300 301 304 306 302 304 305 302 306 302 311 310 310 313 312 312 314 308 309 311 303 308 311 310 312 315 314 311 314 315 311 308 315 306 301 300 306 304 297 298 297 300 304 306 306 308 308 313 313 313 314 317 319 319 319 320 321 322 325 331 333
312 307 302 306 310 309 311 312 310 306 301 294 292 289 295 294 298 298 299 298 298 296 293 295 293 296 297 295 300 302 304 300 304 303 300 304 301 307 307 308 309 311 313 313 310 311 312 303 306 312 310 311 312 311 303 306 312 314 316 311 313 309 304 302 304 305 305 299 299 300 303 302 310 311 314 315 315 316 316 317 317 319 320 321 324 324 327 331
306 302 299 308 310 311 312 311 305 303 297 290 290 290 295 292 296 297 298 298 295 294 293 293 296 294 296 298 298 297 303 302 301 302 303 305 303 305 305 308 306 310 311 313 310 312 309 312 302 308 312 311 304 308 305 306 304 306 307 307 308 307 311 309 308 304 302 301 301 301 299 304 310 314 313 316 317 317 317 317 319 319 322 323 325 326 329 332
308 302 300 309 310 311 310 306 300 294 293 296 295 293 293 292 295 296 297 298 297 299 296 295 294 293 296 294 294 298 298 301 301 301 304 304 303 301 304 305 306 307 311 310 310 312 309 309 303 307 305 304 306 311 310 310 309 307 306 306 308 305 303 300 299 308 305 302 298 300 301 309 313 318 317 317 319 318 319 319 319 321 321 325 326 328 331 333
302 295 299 310 310 310 305 297 296 298 296 293 292 294 293 298 295 296 297 299 299 297 300 297 297 296 295 293 294 295 296 297 302 302 303 302 302 302 303 307 308 309 308 307 308 312 313 312 307 305 305 306 309 312 314 314 313 311 309 307 310 309 308 304 296 302 305 305 306 306 303 307 316 318 318 318 318 318 320 319 320 320 322 323 325 326 330 335
300 297 307 310 310 307 301 295 296 297 295 296 299 298 299 297 296 298 295 297 295 299 297 295 297 296 297 296 296 295 297 295 298 300 302 303 302 302 305 306 308 310 311 310 311 312 317 308 306 307 311 311 313 314 314 314 312 309 310 311 310 307 308 307 306 309 305 305 302 303 302 307 315 320 319 317 319 318 321 320 320 320 321 323 325 327 331 334
300 300 302 308 311 307 299 289 291 292 295 297 297 295 299 296 296 295 295 296 295 296 295 294 296 299 296 299 296 294 298 292 299 298 299 303 302 305 305 306 307 307 308 308 307 313 306 308 307 303 304 305 306 310 309 312 311 308 307 309 310 311 311 311 311 312 306 306 305 302 298 305 314 319 318 318 317 316 317 319 320 321 322 323 324 329 331 341
300 302 303 304 308 305 295 296 294 293 293 294 294 293 294 294 296 296 296 295 297 297 296 294 296 297 297 300 296 297 298 296 294 300 300 299 301 305 305 305 307 306 307 309 311 310 306 307 305 301 298 296 296 297 299 302 305 308 310 310 310 310 310 308 304 307 301 310 310 304 304 311 316 319 318 318 317 319 319 318 320 322 324 323 325 331 338 338
297 292 297 300 302 303 301 302 299 295 294 294 292 293 294 292 295 297 297 295 296 297 297 297 297 297 296 296 295 296 296 299 296 295 298 299 302 304 304 305 305 305 308 311 311 312 307 309 308 307 305 303 305 309 311 310 308 304 307 309 309 310 311 311 309 306 302 307 308 310 310 311 314 315 316 316 317 317 317 320 319 320 323 328 331 330 332 341
300 294 293 292 297 301 296 299 297 297 294 296 290 293 291 292 292 293 298 292 297 296 296 296 294 292 293 293 293 294 296 295 298 297 297 296 298 301 305 305 305 306 309 309 309 309 308 305 307 309 309 311 309 310 310 311 307 307 307 307 309 309 310 309 306 304 313 307 301 311 315 311 312 314 315 316 317 319 319 321 321 324 325 326 325 332 342 339
293 296 297 299 292 289 291 294 297 296 297 296 293 295 292 291 290 288 294 296 297 298 292 295 296 294 294 292 294 292 295 294 295 292 295 295 296 301 302 304 304 306 307 306 309 308 306 303 308 309 307 309 312 308 309 309 310 309 308 309 308 309 309 307 308 310 312 306 304 312 315 313 314 314 316 318 319 319 317 319 321 325 325 326 329 327 325 330
300 299 298 300 293 295 295 295 297 297 295 295 293 292 290 290 289 292 292 293 293 291 294 289 292 294 294 295 293 290 292 289 289 292 293 293 295 296 298 302 304 306 305 305 307 310 306 304 307 308 307 309 309 309 310 308 309 309 309 309 310 309 309 308 309 310 310 312 312 314 315 312 315 315 317 318 320 320 321 322 323 323 321 325 325 324 322 325
296 295 294 299 298 295 296 296 297 295 293 295 290 292 292 291 290 292 294 292 290 290 294 289 292 294 294 294 293 290 292 292 291 288 293 294 293 297 295 296 296 302 305 303 304 309 304 303 306 307 305 306 309 309 308 308 307 307 309 309 309 310 310 310 309 310 311 311 311 312 314 312 316 321 320 323 324 321 321 319 319 322 322 321 322 321 323 324
302 303 302 295 292 294 295 296 295 294 292 294 291 293 293 293 292 294 292 296 294 290 293 292 294 294 295 294 292 292 295 294 294 293 295 295 291 295 293 295 299 297 301 302 304 304 305 303 305 305 301 302 306 305 306 307 307 306 307 308 308 308 307 309 308 311 310 309 311 310 310 312 318 320 320 321 321 321 320 321 321 321 320 322 322 322 323 326
304 305 304 299 291 296 292 295 295 293 290 294 292 294 293 294 295 295 291 296 296 297 296 295 296 294 294 293 292 293 296 296 296 297 298 299 300 299 299 299 299 299 299 300 303 301 303 301 301 301 299 300 305 306 305 306 306 302 304 307 309 309 310 311 312 313 312 312 309 307 309 316 319 321 318 319 318 320 320 320 321 322 324 322 323 323 324 325
Wind_Speed
22 21 21 21 21 21 21 21 21 20 21 22 23 23 23 23 22 23 22 22 20 20 19 19 18 17 16 15 15 14 14 13 13 11 15 23 11 12 11 8 14 14 17 14 15 16 17 17 18 15 12 10 10 11 7 9 8 5 8 5 7 3 7 5 8 7 8 4 7 5 4 4 6 5 7 5 7 9 8 10 8 7 9 14 19 21 21 22
22 22 22 22 22 22 21 21 20 20 21 23 23 24 24 25 25 25 24 22 21 20 19 18 18 17 16 15 15 14 13 13 16 16 22 17 12 9 14 12 17 15 17 15 17 18 17 18 18 17 13 11 9 10 8 8 8 9 7 7 6 5 8 12 1 7 5 6 5 4 4 2 7 1 5 5 7 9 10 10 9 13 15 18 21 23 23 22
23 23 23 23 23 22 22 22 21 23 22 23 24 24 25 24 24 25 24 23 21 20 19 18 18 17 16 14 13 13 13 14 16 21 24 22 16 17 17 16 19 17 19 17 17 18 17 17 17 16 13 11 11 11 12 9 9 10 10 8 3 12 3 5 1 4 5 5 8 2 5 2 7 3 6 4 8 7 8 9 12 12 15 18 21 23 23 22
23 24 24 24 23 24 23 22 22 22 23 23 24 24 23 24 25 25 24 23 21 19 18 18 18 16 15 14 12 13 11 14 14 16 8 8 24 19 18 16 19 21 21 18 16 17 15 15 17 16 12 12 10 12 11 8 7 7 11 9 1 12 8 6 0 4 5 5 5 4 6 4 7 4 4 4 6 5 6 10 11 14 15 19 21 23 22 22
24 24 24 23 23 23 23 23 23 23 24 24 25 27 27 26 25 25 23 22 21 19 18 18 17 16 14 12 12 10 10 9 2 11 9 5 15 18 17 16 20 23 21 17 15 16 16 17 17 16 13 11 12 11 12 12 11 8 11 11 5 9 11 6 2 7 5 2 3 4 3 5 7 5 4 4 2 1 7 13 15 15 17 20 21 22 22 23
24 25 25 24 24 24 24 24 24 24 25 25 27 25 24 24 24 24 23 22 22 20 20 18 15 15 13 11 10 10 7 5 7 9 10 9 16 16 16 19 22 22 20 18 16 16 18 17 18 15 13 12 14 12 12 13 12 11 10 9 6 7 13 7 4 3 3 6 5 2 4 2 3 4 5 3 6 5 6 17 12 13 17 18 18 20 22 23
24 24 24 24 24 25 25 25 25 25 25 25 26 25 25 24 23 22 22 22 21 21 19 17 14 13 12 10 11 9 12 16 4 12 14 14 14 15 15 18 20 21 20 18 18 16 18 18 19 16 14 15 15 14 13 14 13 12 10 7 11 11 10 6 7 4 7 5 6 5 2 5 3 6 7 7 2 8 6 14 18 16 18 18 19 21 22 22
24 25 24 24 24 25 25 25 25 25 25 26 26 26 26 28 25 24 23 22 21 20 18 14 12 10 7 9 7 9 14 15 19 13 15 15 14 15 15 18 21 20 20 20 18 19 18 20 20 16 15 14 11 15 13 13 15 14 14 11 6 6 8 8 8 8 8 9 6 7 7 5 3 3 5 5 6 9 7 12 18 19 19 18 18 19 20 20
25 24 24 24 24 25 26 26 26 26 26 26 27 27 26 25 24 23 23 23 20 18 15 13 10 10 9 7 9 11 15 15 16 16 16 16 15 16 18 14 19 19 18 19 19 18 18 17 19 17 13 17 14 14 14 13 12 15 15 11 11 8 8 10 10 10 10 8 7 8 9 5 6 2 6 5 8 9 7 13 16 19 20 21 21 20 20 19
26 24 24 25 25 26 26 27 27 27 27 27 27 27 26 25 23 23 23 22 19 17 13 9 8 10 9 8 9 12 7 2 2 9 12 12 16 18 21 16 20 20 19 20 18 19 19 15 19 18 16 14 13 14 12 16 7 9 15 15 13 11 10 10 11 10 11 11 10 10 9 4 6 4 6 7 10 11 10 13 15 17 18 19 18 18 19 20
25 25 25 26 26 27 27 27 28 28 28 27 28 27 26 25 25 23 22 21 17 16 13 11 10 12 11 11 12 12 4 6 2 4 7 11 15 17 18 16 21 20 20 19 19 20 18 17 17 11 13 11 11 16 13 12 13 6 7 11 15 14 12 11 11 12 10 10 13 11 9 8 6 8 3 11 9 12 12 14 16 16 16 16 19 18 18 18
24 24 25 26 26 27 27 28 29 28 28 28 27 25 24 25 24 22 20 17 18 12 9 10 14 9 10 11 14 13 7 4 1 4 7 9 14 17 18 18 19 20 20 19 20 19 19 18 15 16 11 11 13 11 14 12 13 15 10 10 11 14 14 15 15 14 12 10 11 8 11 12 12 10 9 10 13 13 13 15 15 16 15 16 17 16 16 17
24 25 25 26 27 27 26 28 28 29 29 28 27 25 24 23 23 21 17 15 9 7 5 10 13 8 9 12 17 19 16 6 1 5 7 9 11 13 14 16 18 19 19 18 18 18 18 17 17 18 17 10 12 9 4 14 16 14 14 12 12 13 14 16 15 15 15 12 14 9 10 9 13 11 12 10 12 13 13 14 14 13 14 15 16 16 17 17
25 25 26 27 27 28 27 27 29 29 29 28 26 23 22 22 21 17 15 11 9 6 6 12 10 8 10 11 5 5 15 15 12 7 7 9 13 14 15 15 15 16 16 17 16 14 17 15 17 16 14 16 10 9 6 7 11 14 12 11 12 12 12 14 14 17 17 14 15 12 9 7 13 14 11 12 14 13 14 14 14 14 14 14 15 16 17 19
24 25 26 26 28 28 29 28 27 28 28 27 25 22 21 20 18 15 12 14 4 3 7 10 9 8 9 11 15 20 8 5 14 14 10 12 13 13 16 15 16 16 15 16 12 12 13 16 16 15 14 15 15 14 12 11 10 12 12 14 13 13 9 13 17 18 17 13 15 12 10 8 12 12 13 13 12 13 14 14 14 14 14 15 13 15 17 17
24 25 26 26 27 29 28 28 28 29 28 26 26 23 21 16 14 13 11 5 6 9 9 9 9 10 11 13 2 11 10 15 15 14 12 11 13 13 14 15 14 15 15 14 11 9 11 14 15 13 13 14 17 13 8 9 13 13 14 12 14 14 12 12 15 16 20 14 16 16 8 8 5 5 12 11 12 13 11 13 14 15 15 14 11 11 11 15
24 24 25 27 27 28 29 28 28 29 29 28 25 25 18 11 9 3 4 7 8 8 7 4 7 8 6 3 3 8 11 14 11 14 14 13 12 13 15 15 14 16 15 11 11 9 14 15 11 12 14 14 14 13 11 14 14 13 13 13 13 15 13 11 11 14 14 15 14 17 13 10 8 18 15 13 12 12 11 12 14 14 13 14 13 13 12 13
26 24 25 25 27 29 28 29 28 30 29 30 26 25 16 9 7 8 8 8 5 7 7 8 8 6 16 18 9 9 13 11 14 12 15 12 14 13 14 14 13 14 13 13 13 13 13 13 12 13 13 16 16 16 17 17 15 14 13 14 14 14 15 14 11 14 15 18 16 16 15 13 11 12 13 14 12 11 10 10 13 14 15 16 16 16 16 16
27 27 25 25 25 28 28 28 29 30 28 24 25 26 4 5 5 9 8 6 6 6 7 9 9 10 8 3 17 3 6 11 12 14 16 16 15 13 14 12 14 17 15 14 13 17 12 12 13 14 18 18 19 19 19 16 16 17 16 14 14 13 12 12 14 12 17 17 17 15 13 14 14 10 13 14 13 12 11 10 11 14 14 14 11 13 14 15
27 27 26 25 26 26 27 26 28 30 27 20 16 11 6 3 4 7 4 6 12 13 18 8 13 18 16 8 7 4 7 5 13 15 16 15 14 15 18 15 15 16 16 14 16 19 13 16 18 19 18 19 21 20 19 20 18 15 15 14 15 16 13 11 11 9 12 14 17 18 16 13 15 15 12 12 13 12 12 11 10 11 13 15 15 14 15 15
26 26 28 26 26 26 25 26 30 28 29 16 17 11 9 12 12 8 18 18 17 21 23 24 21 18 17 12 5 8 8 12 12 15 18 15 15 15 17 17 17 16 17 18 15 15 15 17 20 20 21 19 20 20 19 19 21 19 14 15 14 16 14 14 16 15 10 11 13 17 18 17 13 16 17 15 13 14 14 12 13 13 15 14 16 15 13 11
26 27 27 28 26 28 28 28 25 27 26 15 7 10 9 9 5 9 11 16 17 15 18 22 20 21 20 22 15 6 7 9 16 16 16 21 18 17 18 19 20 18 17 17 15 15 18 20 20 21 20 19 17 19 19 19 20 20 14 12 13 12 12 13 16 18 13 10 10 13 15 14 16 15 15 15 16 14 14 13 12 13 14 14 14 15 12 12
27 27 27 28 27 27 29 29 31 25 11 9 8 11 11 10 9 7 10 14 21 17 18 22 23 24 21 17 17 13 13 15 15 19 20 21 20 20 18 19 19 18 18 20 18 17 16 19 22 20 18 20 19 19 21 21 18 16 15 14 13 12 13 13 14 15 14 10 11 14 15 12 14 14 14 13 14 13 15 14 14 12 13 14 16 15 14 15
28 28 27 29 28 27 27 28 31 17 5 9 8 12 12 10 10 11 12 10 14 21 18 22 21 19 22 19 14 20 17 13 15 21 21 22 21 21 17 22 21 19 19 24 24 19 19 11 18 20 20 21 22 20 19 17 16 18 18 15 14 16 15 13 10 17 17 18 16 13 12 11 14 16 15 16 16 15 16 16 14 12 12 15 14 17 17 18
27 26 26 27 28 29 31 26 11 11 14 9 5 13 12 12 9 10 11 11 12 14 14 16 14 16 16 14 12 17 17 14 16 14 19 23 23 19 19 16 16 19 20 24 24 21 19 15 14 21 21 21 21 19 19 16 16 17 22 19 17 18 17 14 16 11 11 12 13 14 12 14 15 19 18 14 15 17 15 16 15 13 12 14 19 18 19 19
26 27 26 25 26 26 34 15 8 13 14 6 12 13 12 11 9 8 8 7 12 7 10 10 13 10 12 16 14 15 14 18 18 15 17 20 20 19 14 15 14 20 24 22 20 14 15 16 14 19 22 22 22 19 20 20 14 15 16 21 20 19 16 16 16 15 13 13 11 17 15 11 12 16 17 17 16 18 14 14 14 13 11 13 16 19 20 19
25 26 26 25 24 23 14 7 12 13 8 9 13 13 11 10 8 10 7 7 11 8 11 9 12 6 8 15 16 15 13 16 15 19 19 21 23 19 20 17 16 13 14 13 11 16 16 20 18 15 20 20 18 18 18 19 15 14 13 18 22 23 20 17 16 15 13 9 12 14 14 13 12 12 17 19 19 18 16 15 15 14 14 15 15 16 18 19
26 25 25 25 25 20 10 12 13 10 9 11 13 12 12 9 9 9 6 6 6 11 8 6 3 5 7 15 19 18 5 8 19 23 21 21 23 21 21 21 19 20 18 17 20 13 20 20 21 20 18 18 18 18 17 19 16 12 13 15 15 18 20 20 16 13 12 11 12 15 18 16 14 11 14 16 18 17 16 14 14 15 15 15 15 15 16 19
24 24 24 25 26 30 15 9 9 10 9 12 13 13 9 11 8 6 6 8 4 3 4 7 0 8 4 14 18 19 15 8 13 19 22 20 25 15 19 23 19 19 22 22 17 14 15 19 21 20 16 16 17 18 17 19 17 16 14 13 14 12 14 18 16 15 14 13 16 15 16 14 14 10 12 15 16 17 17 18 17 16 13 12 12 14 17 19
24 23 24 23 22 12 3 8 10 7 11 13 13 14 15 11 8 7 8 11 5 3 2 6 8 9 10 13 14 19 21 12 7 12 24 19 23 23 15 17 19 18 19 22 21 17 13 17 19 16 18 16 16 15 17 19 19 12 16 15 10 7 8 9 12 14 13 18 18 19 19 17 14 13 14 15 15 15 14 14 15 15 15 16 14 19 16 15
24 23 21 21 11 9 10 9 7 14 12 12 14 17 11 7 8 9 12 5 9 5 5 10 6 6 13 13 11 16 19 14 12 11 21 20 20 23 15 15 18 15 15 18 20 21 20 15 16 15 17 13 14 16 17 17 17 16 13 12 8 11 10 10 11 11 14 17 15 19 20 20 18 13 13 13 15 20 18 16 17 19 19 17 18 18 16 15
26 25 25 16 11 9 8 10 14 13 12 14 16 12 8 10 10 13 10 7 12 8 10 7 6 5 7 12 13 15 16 16 12 16 19 19 19 20 22 18 17 17 18 19 18 19 21 18 13 17 16 20 17 14 14 16 16 16 14 13 13 10 10 13 12 16 18 15 10 16 18 17 23 14 10 14 17 15 16 16 18 20 21 21 21 21 16 15
27 26 25 15 13 7 8 10 12 12 14 15 12 8 9 9 13 11 15 14 3 10 9 13 12 13 12 12 12 13 18 18 16 15 19 20 19 22 25 22 21 19 16 17 16 18 17 19 19 17 16 19 18 16 14 15 16 17 16 15 14 13 13 12 14 11 11 14 15 12 17 18 16 12 19 19 15 15 17 15 18 21 23 20 20 17 15 15
28 27 14 8 7 7 7 10 10 14 14 12 11 9 10 11 12 13 16 11 12 11 13 14 18 15 13 11 11 13 13 17 19 16 20 17 21 19 21 27 24 23 15 13 17 17 15 19 22 21 15 19 21 17 14 12 15 16 15 14 13 11 10 12 11 15 14 9 14 20 12 14 16 9 12 18 20 18 13 16 18 19 18 18 18 16 15 13
31 26 15 7 5 4 9 11 11 13 12 10 10 10 11 11 10 10 10 11 13 14 15 21 17 16 13 13 16 17 15 12 21 18 18 18 19 19 20 21 29 21 18 15 16 13 23 16 16 24 13 20 22 21 17 15 13 15 15 12 14 16 9 10 8 10 10 11 11 15 15 9 10 6 5 7 14 19 18 14 14 16 15 15 18 20 17 15
23 8 9 2 6 7 11 9 10 12 10 10 9 9 11 9 9 7 5 14 13 16 20 20 14 13 12 11 13 14 8 11 16 18 16 20 18 20 20 17 22 27 18 19 10 14 16 17 15 23 23 21 24 22 20 16 14 15 15 18 16 12 13 9 9 10 11 10 12 9 11 13 5 9 13 11 10 13 19 20 18 14 16 15 15 19 16 16
11 13 4 4 5 12 10 10 9 10 9 9 10 10 10 10 11 14 9 14 15 17 15 12 6 9 8 10 11 15 10 13 11 16 14 18 16 20 20 20 22 27 27 17 13 11 12 13 17 19 29 20 21 23 22 20 13 12 17 16 13 13 12 10 10 7 8 9 8 10 13 12 12 9 10 12 14 14 16 19 20 19 17 18 15 17 18 18
14 11 12 5 10 12 11 9 10 8 8 7 10 14 12 14 10 15 14 15 13 12 12 11 11 14 12 10 8 10 16 13 11 13 13 17 8 3 17 18 23 21 29 23 15 12 12 11 16 22 23 20 19 21 21 22 21 14 14 13 15 14 16 13 8 13 11 12 9 10 12 10 12 10 8 16 16 14 14 16 18 19 20 19 19 19 22 21
13 12 2 11 11 12 10 10 9 8 7 7 8 10 7 14 12 13 16 15 12 14 12 13 13 11 15 14 13 14 2 8 6 10 11 12 13 6 6 8 6 5 3 20 19 10 12 12 9 20 21 21 18 18 20 19 22 21 13 16 15 11 13 13 12 7 8 8 9 11 13 11 11 10 11 8 14 14 13 13 14 16 17 16 16 17 18 18
9 8 5 11 13 11 11 12 8 6 6 7 8 8 10 12 12 15 13 15 12 11 11 16 15 15 16 15 17 14 7 12 11 11 15 1 4 12 9 5 7 3 4 6 12 18 11 13 11 15 22 20 17 16 19 20 21 20 17 14 15 12 9 10 11 13 9 9 8 7 10 11 11 12 12 8 10 14 14 13 11 12 14 16 15 14 14 15
9 9 5 13 13 12 12 10 5 4 6 2 2 9 11 10 13 12 13 12 11 10 14 15 15 14 15 15 15 15 12 12 12 11 13 10 7 5 10 11 6 8 4 7 9 15 9 11 15 13 16 19 18 19 22 22 21 19 17 15 15 16 15 16 14 11 13 9 6 7 7 2 9 5 3 7 10 11 12 12 13 12 12 14 14 15 16 16
9 7 9 12 12 14 12 8 3 5 5 6 9 10 9 9 10 12 12 10 12 10 9 14 17 16 15 14 12 14 13 14 12 11 12 5 12 8 8 10 10 7 7 9 14 16 9 4 14 13 15 17 19 20 21 21 22 21 19 17 16 15 14 12 10 11 11 12 9 8 6 2 7 6 5 6 8 10 10 9 10 12 12 12 13 14 16 17
8 9 9 7 11 13 10 5 4 5 6 7 9 7 9 8 10 10 13 12 11 8 8 8 13 16 16 15 15 16 15 12 15 12 7 8 7 6 9 11 10 10 5 7 15 18 4 8 8 13 14 14 18 18 20 21 22 21 20 19 17 18 18 12 10 8 10 11 12 8 7 3 8 9 9 10 5 3 9 10 10 10 10 11 11 13 16 14
9 9 6 8 10 11 7 7 8 7 8 9 9 11 6 9 9 11 11 13 9 9 11 10 11 10 16 17 15 15 11 11 12 17 11 5 4 6 6 9 13 4 3 2 4 8 13 12 12 10 11 11 15 15 17 19 19 16 17 19 20 18 19 16 11 8 10 12 13 10 10 7 11 8 7 1 6 9 10 9 12 11 10 8 10 6 9 9
8 8 3 7 8 8 5 5 7 8 9 10 11 11 10 8 7 10 12 12 9 9 11 8 9 12 13 14 16 16 16 17 13 11 13 14 2 7 3 7 9 8 8 9 11 9 7 13 14 14 16 16 16 17 18 20 21 15 18 22 24 23 22 17 15 10 8 9 13 10 8 5 12 7 8 11 8 8 8 13 10 6 10 7 8 10 7 6
8 9 7 8 8 6 3 5 5 8 8 9 10 7 9 10 7 9 9 10 4 10 9 10 9 10 11 14 14 13 15 14 14 8 9 8 8 2 3 7 6 9 11 15 13 7 7 8 15 15 13 12 4 4 13 17 15 19 22 24 24 24 22 18 11 12 12 7 9 9 6 11 10 12 9 9 7 9 5 6 12 12 9 13 10 7 6 5
9 7 10 10 9 4 8 7 7 7 8 9 8 7 10 9 9 7 7 9 8 9 10 6 7 9 9 13 12 15 16 16 17 14 10 11 10 12 2 8 5 7 14 12 3 5 5 10 14 21 24 4 8 6 11 10 20 21 21 23 23 25 23 22 17 14 9 9 10 9 11 6 10 11 8 8 9 7 6 4 8 9 9 8 9 5 8 8
6 7 9 6 8 9 11 7 9 9 10 10 7 7 9 9 9 9 8 7 12 4 6 1 6 7 10 10 13 10 12 17 12 11 17 15 13 12 7 6 5 5 10 6 3 5 6 12 14 14 25 17 8 8 7 6 14 17 23 21 25 24 25 25 21 17 14 12 9 12 11 9 7 10 11 10 10 8 9 9 7 8 10 8 6 5 3 10
6 8 8 9 10 10 11 14 13 10 12 9 6 8 9 8 10 8 8 11 8 7 8 8 9 11 11 9 7 9 11 11 7 13 11 12 12 14 6 2 6 4 7 5 3 3 5 8 13 19 15 16 9 10 7 9 10 7 13 23 22 24 25 25 21 20 18 12 11 9 16 17 9 11 12 11 8 5 2 2 5 2 7 6 5 2 3 7
7 8 8 8 10 12 12 9 9 10 9 6 6 3 6 8 10 8 7 4 8 3 5 9 10 11 11 10 8 8 10 11 10 10 14 15 16 9 9 10 13 12 8 6 4 2 5 7 8 6 10 16 15 12 9 10 5 10 13 17 22 21 21 23 22 20 19 15 15 9 9 11 13 9 9 5 2 2 5 7 8 3 5 5 3 3 3 4
8 7 6 9 10 9 10 10 8 8 8 6 5 6 8 9 9 8 9 5 6 8 6 9 10 12 10 10 10 10 9 10 10 12 13 13 11 13 9 8 13 11 9 7 3 5 6 4 4 7 9 12 12 13 10 8 8 12 11 9 11 21 23 20 19 17 17 16 14 14 11 9 6 7 6 2 2 3 2 1 3 4 5 5 5 5 5 5
10 7 6 6 10 11 12 10 10 8 8 4 5 8 9 11 10 9 10 2 5 7 9 10 9 9 10 11 10 10 9 11 12 12 13 13 14 13 11 12 12 10 8 8 7 7 4 6 5 9 9 11 14 14 12 11 8 11 14 15 15 11 9 12 13 15 16 13 14 13 9 6 6 7 8 6 6 7 8 7 7 8 6 7 7 7 7 7
Wind_Direction
357 355 354 352 350 348 347 345 342 338 332 330 326 324 323 322 320 322 324 322 321 319 316 313 311 310 310 308 307 305 309 289 293 260 230 244 240 199 162 129 159 175 189 194 191 180 187 194 196 192 197 205 214 236 225 208 255 238 252 248 266 252 145 258 285 124 210 41 96 151 131 115 121 140 90 172 131 106 129 114 109 81 64 99 125 137 145 148
356 355 353 351 349 346 345 342 338 333 330 325 324 321 323 324 325 323 321 320 319 317 313 309 308 307 307 306 304 304 300 287 274 263 244 247 181 184 168 156 160 181 190 199 195 188 189 191 193 186 200 210 196 230 209 220 219 247 233 236 251 300 176 230 10 64 351 52 59 93 131 202 90 148 112 190 136 132 138 119 125 106 103 110 128 137 146 152
356 354 351 349 348 345 342 340 337 333 328 324 321 323 326 323 323 321 319 318 317 315 311 307 306 303 303 300 300 298 287 288 269 257 256 233 200 178 176 165 173 175 193 200 198 193 197 188 190 186 203 216 193 222 197 213 191 227 256 250 210 256 200 55 98 39 40 323 98 102 119 143 105 199 102 220 137 146 150 136 133 128 124 133 136 144 149 155
355 353 351 349 347 343 339 337 334 331 326 322 320 321 320 323 322 320 317 316 313 311 308 304 303 301 298 296 297 296 283 277 270 257 262 190 190 177 172 165 176 181 197 212 196 199 199 192 193 193 200 224 190 225 201 198 209 206 239 251 84 304 294 143 316 51 25 349 70 98 92 217 136 174 186 105 171 153 149 140 137 134 144 144 148 149 154 160
354 352 350 347 344 341 338 335 333 329 325 321 323 325 326 324 322 317 314 311 310 305 303 305 298 295 294 289 289 279 279 281 255 73 46 107 157 161 167 172 179 185 200 209 195 201 199 195 193 195 213 209 218 204 219 208 211 254 235 255 214 274 275 79 12 53 349 0 296 86 232 128 106 176 187 174 14 84 161 134 136 143 150 151 154 154 160 159
353 351 349 346 343 340 337 334 331 327 324 324 327 323 321 320 319 315 310 306 302 303 304 301 295 286 289 287 280 260 262 234 66 86 94 110 145 161 172 179 186 193 198 206 195 196 199 195 195 199 209 222 214 211 207 222 196 243 235 239 242 241 278 27 318 359 347 318 338 270 77 60 180 162 182 193 155 145 60 119 137 149 149 154 155 159 162 166
352 350 348 345 341 338 335 331 328 326 325 325 322 320 318 316 315 311 306 302 301 303 302 296 290 281 271 283 263 257 235 266 302 135 132 136 160 169 175 179 188 203 200 201 195 195 198 197 197 199 212 216 225 216 215 208 210 236 260 202 223 226 249 264 278 283 258 276 288 320 39 254 133 236 141 196 188 104 102 123 144 155 146 157 165 168 170 169
350 348 345 342 338 335 332 328 327 326 325 323 319 318 320 320 317 309 305 303 303 302 298 290 282 267 269 244 237 220 229 245 260 155 143 145 163 170 174 182 189 202 206 202 192 199 193 202 197 202 217 216 211 221 212 215 213 227 240 258 237 215 235 242 244 249 249 261 263 249 263 238 201 257 148 178 172 126 128 124 145 144 154 163 168 172 170 169
349 345 343 339 336 333 330 328 325 324 325 321 318 319 318 314 310 308 306 305 302 300 290 284 264 250 238 267 249 259 247 240 247 144 153 158 164 163 173 177 192 202 208 204 199 202 197 203 203 207 213 219 225 228 214 222 215 222 240 239 253 241 221 222 233 241 251 261 251 242 235 234 218 151 246 158 170 138 150 135 143 149 155 166 173 172 167 169
347 343 341 337 333 332 330 327 325 325 324 320 318 315 316 315 311 309 307 305 301 291 287 272 238 219 209 218 227 247 261 327 136 229 179 183 165 164 181 184 184 203 208 206 200 206 204 200 210 205 238 236 235 234 219 220 249 218 228 242 248 241 234 218 241 240 239 243 241 244 241 233 205 194 198 183 162 151 159 146 145 156 161 164 167 168 167 169
346 343 339 335 333 330 329 327 326 325 324 321 317 316 316 314 311 308 307 302 299 291 282 242 213 201 210 224 239 236 103 241 171 164 204 220 181 181 190 195 186 198 210 205 209 206 205 216 202 217 227 242 222 238 232 221 227 210 262 239 232 244 247 248 232 242 236 239 247 250 255 232 216 190 234 158 176 156 164 154 157 157 165 163 166 167 170 170
344 341 336 333 331 329 328 328 326 325 322 319 315 314 314 312 309 308 304 303 294 294 268 213 189 208 232 232 235 230 90 241 207 253 193 189 184 194 198 195 191 200 202 207 210 206 210 213 208 214 220 216 253 243 228 238 221 242 229 244 233 231 238 225 230 223 225 244 245 233 246 223 203 208 194 156 166 158 171 161 164 163 162 165 167 166 172 176
342 339 336 334 330 329 329 327 326 324 320 317 314 314 312 311 310 306 299 298 309 304 233 189 190 219 227 236 241 240 254 241 266 285 244 188 192 197 200 201 198 205 206 213 207 209 209 214 215 217 230 218 227 221 13 217 223 234 238 248 250 244 236 224 216 224 217 222 226 203 234 215 199 196 178 159 167 169 175 168 171 167 168 166 169 169 173 177
341 338 336 333 330 329 329 328 327 322 318 316 313 312 310 309 306 302 293 289 312 277 193 179 199 209 232 245 261 173 234 246 246 237 247 208 202 190 200 198 200 208 212 223 216 208 211 213 218 229 227 235 230 216 223 244 214 225 225 230 244 242 236 216 219 205 218 207 220 201 241 221 185 181 168 176 163 181 180 173 180 172 172 165 174 172 176 176
339 336 335 332 330 329 329 329 326 320 317 316 311 312 308 306 299 292 284 282 258 190 164 175 213 217 224 262 245 248 120 250 233 221 223 209 203 188 196 191 197 204 212 219 219 210 210 209 221 220 224 223 258 253 217 226 213 217 222 222 228 242 232 229 200 207 214 189 212 206 227 249 153 169 171 165 174 179 187 174 182 178 175 168 174 181 180 177
337 335 334 333 331 330 329 330 325 322 318 314 313 309 306 296 288 275 277 347 150 161 170 188 198 236 297 278 262 98 178 217 218 213 211 219 203 195 187 192 192 199 203 208 222 203 212 209 217 218 225 216 228 234 243 220 222 210 228 229 224 221 231 227 197 205 201 204 196 212 219 228 154 91 158 165 169 183 188 186 181 183 179 161 173 185 190 179
336 335 334 332 332 330 330 329 326 321 321 315 313 308 303 292 256 301 236 186 173 189 211 237 176 203 246 70 107 212 205 207 215 193 205 213 204 199 183 183 185 189 195 196 219 211 193 216 202 226 227 229 210 222 224 221 214 212 209 234 232 223 210 228 171 207 194 216 192 205 230 205 172 167 196 168 174 183 188 194 186 186 179 158 176 189 192 189
335 334 333 332 332 331 329 329 327 321 320 317 309 301 288 268 260 278 215 216 211 213 227 254 270 230 242 248 247 230 205 191 197 189 193 192 209 192 184 177 179 181 180 181 205 210 188 207 201 220 207 220 210 207 217 214 209 208 205 214 228 238 221 210 206 180 207 195 223 193 216 220 212 183 178 176 184 187 199 200 189 191 182 172 188 186 189 190
334 333 332 332 332 330 329 327 325 322 319 316 296 285 261 184 244 236 246 196 214 193 211 186 198 191 33 195 214 357 203 181 175 184 184 188 199 192 181 183 176 174 185 189 180 205 175 211 204 218 215 206 212 208 215 224 217 219 211 214 226 226 220 222 205 186 200 200 213 217 209 206 220 214 182 184 190 196 199 207 198 189 187 169 191 180 197 194
333 331 331 332 333 329 328 327 322 320 321 323 317 307 171 303 242 185 197 272 252 257 288 305 211 256 297 276 191 162 52 140 175 191 181 186 186 181 184 189 180 188 190 196 172 205 173 206 204 211 213 209 213 217 218 225 242 230 230 225 220 228 223 205 236 222 189 215 208 214 234 217 212 221 229 202 188 202 204 198 202 195 189 173 186 189 198 201
332 330 330 331 333 329 326 327 322 319 318 315 305 3 25 359 344 332 335 296 271 259 259 266 255 249 252 260 252 180 188 192 216 185 191 175 184 181 183 188 185 195 201 198 186 189 200 212 216 212 214 215 211 217 222 227 232 240 237 233 228 219 230 197 205 223 196 216 209 215 219 227 218 219 217 211 205 207 205 200 201 199 198 169 179 194 192 190
331 330 329 330 332 332 327 327 318 317 313 293 335 16 23 19 344 311 314 300 294 271 264 255 255 251 249 257 259 258 263 219 197 194 187 178 183 197 171 197 189 199 191 199 189 187 207 218 217 213 211 220 218 212 224 228 226 232 237 234 241 226 227 216 201 207 212 207 229 218 228 225 219 219 215 205 201 205 210 204 203 202 201 170 180 184 190 199
331 330 328 328 330 330 327 323 320 309 299 324 10 13 14 347 326 322 291 281 279 265 245 245 240 238 242 236 234 231 223 224 196 190 183 184 182 207 177 197 196 201 194 200 200 192 208 222 216 212 209 213 217 218 213 221 231 230 222 229 228 228 217 208 206 195 201 218 224 224 230 230 237 230 234 226 227 201 204 200 206 204 206 174 184 186 181 207
331 328 328 327 330 328 324 320 311 291 321 339 314 21 349 339 336 321 302 280 295 289 246 234 222 227 227 216 208 216 218 215 219 189 182 186 193 194 205 197 200 202 203 201 209 204 210 210 204 213 209 207 216 214 214 213 220 226 233 222 229 227 221 241 205 198 200 209 229 226 238 238 231 231 223 227 227 225 198 201 212 213 201 164 186 179 185 196
327 325 324 325 328 328 322 319 305 360 314 281 7 358 343 337 337 343 303 287 240 248 241 239 214 220 224 211 199 206 210 231 228 200 179 189 188 185 211 195 211 206 210 203 213 222 220 216 190 207 209 208 215 215 211 213 220 221 226 232 231 233 243 222 241 221 217 221 212 221 230 226 218 229 230 218 215 214 200 201 208 212 207 171 175 186 187 197
326 323 324 325 325 331 314 298 21 335 313 15 359 341 332 332 344 327 300 277 275 266 147 210 157 208 191 194 187 203 201 225 209 217 182 195 198 195 189 209 204 210 207 207 210 224 228 208 211 199 207 208 212 219 210 213 226 223 215 220 235 244 243 247 239 216 215 228 215 219 236 237 229 228 223 225 223 216 198 204 212 207 208 199 189 183 183 191
323 322 322 324 324 334 331 1 329 306 322 355 345 330 329 325 348 316 274 244 266 194 172 86 189 109 216 175 176 170 200 217 197 216 196 184 202 194 207 201 194 230 207 211 206 218 219 218 209 203 205 210 210 215 212 208 220 228 221 210 218 229 239 242 248 248 251 240 251 222 216 247 239 228 238 223 224 220 207 197 213 213 201 210 203 192 180 189
321 320 320 323 319 322 281 292 303 322 352 335 327 326 319 327 307 269 255 300 266 126 132 169 358 125 242 158 181 193 194 106 177 202 208 177 206 193 219 206 205 203 209 201 221 202 209 213 210 197 207 209 214 213 206 203 218 229 223 231 218 221 229 235 241 242 245 246 238 235 216 230 234 223 220 225 225 218 209 209 212 220 195 208 208 202 184 188
319 319 320 321 322 301 281 254 294 305 331 331 324 319 317 305 292 296 274 260 74 131 15 138 276 192 164 161 198 211 217 198 206 177 192 186 203 207 206 217 211 208 215 216 225 209 206 217 211 211 202 215 214 209 204 206 217 218 235 222 231 224 227 224 229 235 241 240 241 234 231 247 248 233 231 225 230 212 208 208 211 212 207 200 228 220 195 186
319 319 320 322 319 292 256 251 260 346 326 334 316 313 302 284 255 235 221 250 234 221 131 95 209 165 181 180 201 205 223 213 257 157 182 192 187 218 222 218 224 214 217 220 230 231 216 200 220 218 209 214 214 208 206 211 221 213 218 227 218 223 225 230 233 230 237 241 235 234 235 239 251 221 226 220 216 224 210 202 205 203 196 198 207 226 202 189
319 320 317 323 308 325 305 279 354 346 327 318 315 304 292 258 244 248 240 260 319 90 203 160 147 171 184 203 199 198 219 219 184 188 176 189 188 204 209 208 225 230 222 220 221 225 234 198 202 219 212 209 219 209 207 212 206 211 211 209 192 210 221 228 221 224 236 238 232 230 233 234 248 232 231 232 225 215 219 200 186 200 200 194 193 226 210 188
320 319 317 319 287 297 295 319 333 318 317 314 310 299 277 258 208 231 233 106 244 36 8 16 19 306 216 214 238 186 203 215 204 190 188 187 188 190 200 207 184 204 216 208 212 208 222 225 199 211 197 207 203 224 191 200 198 202 209 201 205 195 195 209 207 213 221 235 221 223 224 234 239 242 246 228 229 231 220 215 201 208 207 194 191 207 217 195
319 314 312 287 265 248 281 316 307 311 312 307 306 292 258 250 247 220 242 282 35 356 5 308 351 316 303 293 249 241 195 210 198 200 201 191 202 199 203 210 192 208 203 198 209 199 214 225 204 200 196 197 209 206 187 193 195 195 204 195 197 200 195 209 208 226 236 226 230 233 212 238 251 238 226 241 241 226 223 214 201 214 218 199 181 198 214 206
315 311 308 289 293 279 281 290 313 311 310 309 285 280 252 245 251 273 280 262 0 355 329 333 325 303 276 256 248 225 211 206 201 199 199 194 202 201 201 211 212 202 233 193 210 201 200 199 215 191 204 182 208 214 202 194 189 197 204 202 201 214 202 204 209 211 221 233 205 217 237 232 231 226 227 226 227 235 229 224 205 208 217 187 180 178 211 217
311 301 279 250 257 298 329 318 309 314 302 298 283 262 264 251 259 266 258 352 349 346 331 329 305 292 274 260 254 238 226 197 204 200 201 205 199 211 197 201 209 214 205 229 196 215 214 220 206 201 200 183 200 206 216 191 192 197 201 206 207 215 220 232 207 227 218 217 229 195 219 225 240 259 273 247 222 215 222 225 221 199 214 199 185 175 192 209
302 315 309 7 325 355 324 325 315 307 303 291 280 263 252 267 264 238 13 357 341 336 330 313 286 269 264 266 224 245 191 287 187 207 204 213 208 210 208 200 204 208 204 214 188 209 207 218 202 190 201 196 196 196 208 200 199 181 197 207 210 206 225 234 241 236 240 235 230 207 207 218 242 222 219 219 242 219 211 215 215 207 201 207 186 169 185 202
323 309 310 345 310 351 328 326 324 302 290 287 279 268 274 276 292 302 22 354 334 328 318 327 263 317 263 239 237 199 201 214 233 203 208 200 219 213 213 208 201 206 219 212 220 224 218 215 208 191 194 197 192 199 206 206 217 174 205 204 202 220 237 234 235 200 224 233 226 218 215 201 208 228 193 203 211 221 210 209 211 210 203 202 206 181 179 199
312 301 280 279 358 337 335 324 314 300 289 292 278 287 293 278 316 334 346 331 336 320 308 291 302 291 297 279 231 205 190 212 196 209 226 187 214 203 219 215 194 212 211 220 244 203 222 229 201 199 189 186 185 193 208 213 214 219 204 182 201 186 208 210 237 228 206 215 232 222 231 229 202 213 211 203 203 212 212 200 208 206 207 208 203 198 182 192
286 295 342 28 350 342 332 317 287 300 299 290 315 291 339 339 335 342 347 332 325 313 288 286 291 300 291 295 306 320 302 225 214 212 230 183 206 50 32 351 135 44 251 225 223 249 217 242 199 184 184 176 185 190 205 199 201 227 217 199 208 221 209 201 209 242 240 228 212 227 223 234 215 225 211 180 195 198 207 199 211 207 196 197 197 195 181 184
319 314 43 16 360 337 322 292 286 269 294 325 327 316 327 320 338 332 331 342 328 322 306 300 299 295 294 296 325 307 282 307 295 290 230 97 176 51 46 354 0 343 276 234 229 217 233 211 243 164 173 172 196 194 205 194 190 195 217 209 189 221 204 223 201 218 217 231 230 228 211 221 223 209 209 179 175 193 196 198 200 223 194 189 194 184 172 182
303 285 25 17 352 334 309 292 267 346 322 303 303 333 322 348 331 317 328 328 318 302 296 287 286 283 296 311 308 312 299 264 276 278 252 118 37 153 36 352 346 296 273 236 223 214 240 212 230 170 181 196 203 195 205 201 195 195 202 210 199 193 200 199 213 197 222 229 231 237 243 108 81 66 126 196 166 179 200 195 184 207 210 189 186 187 178 180
314 326 356 355 348 329 322 310 24 324 301 351 348 333 339 339 307 338 330 343 320 318 302 288 282 277 278 278 286 296 294 301 261 256 266 227 49 17 12 339 310 319 263 210 207 208 242 282 230 204 190 208 206 194 204 211 199 200 200 208 203 197 209 206 213 191 207 226 241 246 258 127 82 91 154 184 188 193 185 197 198 185 205 196 183 186 181 180
342 327 321 359 347 326 321 327 339 329 342 353 328 309 344 326 330 344 336 341 327 334 320 309 314 318 300 306 293 277 282 274 282 253 302 14 64 26 10 332 326 285 259 240 207 213 72 236 251 237 185 208 201 199 195 213 205 200 204 211 205 205 201 210 207 200 207 197 213 210 235 160 133 127 116 93 34 235 164 187 208 185 195 184 183 191 179 177
317 315 320 17 336 321 325 349 344 341 338 334 333 325 336 336 323 345 338 340 339 336 331 312 316 327 314 308 303 298 290 284 272 267 253 311 283 38 0 332 338 340 305 13 268 169 212 213 240 213 215 191 190 193 192 200 214 208 200 203 211 208 203 209 214 205 215 199 204 203 204 220 130 144 124 225 204 194 166 160 182 183 182 175 170 143 113 125
316 298 340 346 342 309 347 354 331 335 331 331 334 323 347 309 5 344 340 337 337 342 322 319 315 320 309 318 298 293 287 277 289 312 335 310 310 35 9 331 342 351 360 349 319 321 284 204 208 215 204 192 186 190 192 189 204 204 206 200 205 210 204 196 210 198 225 188 205 203 203 145 111 162 185 202 178 142 155 159 151 145 158 147 134 99 97 137
353 316 359 327 348 300 337 323 313 337 319 337 324 333 326 320 338 344 344 320 10 335 325 320 321 313 310 332 309 286 277 261 258 263 287 281 295 188 57 310 348 354 346 327 302 294 254 250 213 227 226 201 213 250 208 193 193 207 200 205 196 210 209 207 210 214 206 193 215 203 221 126 162 140 159 129 136 130 106 109 137 148 144 86 90 92 126 153
326 314 348 330 328 335 331 331 334 327 326 340 301 336 317 323 329 315 19 303 5 342 319 336 341 341 331 334 328 307 283 291 273 261 265 282 319 315 357 315 347 8 318 298 330 304 249 242 229 224 241 262 331 325 346 229 201 205 207 201 203 202 211 206 208 209 192 198 218 184 232 146 148 148 145 178 168 132 125 94 98 112 113 121 104 135 140 151
323 342 322 2 304 314 317 315 328 312 309 298 295 316 300 311 328 323 330 305 312 19 331 268 329 340 334 330 324 308 325 318 318 355 360 358 334 304 233 172 343 37 318 354 312 289 275 231 228 231 230 239 252 342 316 247 221 209 210 207 203 202 203 213 207 211 194 213 210 177 204 226 149 172 175 159 125 148 158 167 158 128 137 135 147 83 67 127
313 316 319 340 305 316 304 308 301 298 292 294 321 286 291 325 319 330 325 326 350 356 352 321 332 335 331 326 315 307 319 325 347 339 360 329 323 304 308 180 172 36 337 348 319 346 281 236 232 222 229 238 223 246 282 263 229 283 254 211 205 204 202 208 211 207 210 205 223 187 189 209 203 156 162 146 164 178 169 279 9 22 171 176 81 140 199 172
327 330 320 318 308 298 298 300 297 297 294 312 279 305 334 311 307 324 327 359 328 3 300 309 322 329 323 308 305 300 308 315 322 324 311 325 312 340 350 9 359 348 336 343 335 34 309 174 16 263 243 236 229 216 233 246 273 240 221 219 204 206 207 202 209 207 209 211 205 202 164 203 212 218 186 151 41 318 263 232 226 252 328 352 340 282 275 254
311 320 315 310 305 306 311 299 297 295 285 281 276 320 316 309 312 332 312 339 311 308 311 309 320 312 305 304 296 292 296 299 297 296 301 291 300 308 323 322 325 328 332 335 337 337 265 307 297 247 230 236 216 217 212 245 234 231 229 236 235 208 203 199 206 203 204 208 206 204 201 195 176 208 247 247 205 272 277 316 288 293 268 259 263 271 292 286
313 308 294 300 293 298 297 293 290 289 279 9 325 304 295 305 305 316 310 300 261 264 272 288 302 297 290 296 298 295 300 291 288 287 288 289 276 279 282 292 300 306 311 309 323 303 353 308 237 197 234 227 216 217 217 222 238 243 232 216 210 222 242 206 204 202 210 213 210 214 208 192 184 180 222 206 209 228 246 253 264 256 261 272 273 274 270 268